Погода в Раздзоге

Россия / Республика Северная Осетия — Алания     43°21′32″N   44°28′14″E
темп.,
°C
ветер,
м/с
пор.,
м/с
влажн.,
%
обл.,
%
осадки,
мм/ч
давл.,
гПа
погр.,
м
12 апреля, пн
пн1200:00+7сз118450 0.0 101711
03:00+7зсз118594 0.0 101716
06:00+6з2286100 0.0 101957
09:00+11зсз2367100 0.0 1020651
12:00+13сз3358100 0.0 10191309
15:00+13с3362100 0.0 1020954
18:00+11с2475100 0.0 1021192
21:00+10сз1282100 0.1 102168
13 апреля, вт
вт1300:00+9сз2387100 0.1 1022206
03:00+8зсз2292100 1.3 1022197
06:00+8зсз1193100 0.1 1022171
09:00+9сз1191100 0.1 1022254
12:00+9сз1189100 0.1 1021343
15:00+10сз2286100 0.1 1020470
18:00+9з2390100 0.0 1020291
21:00+8з2395100 0.8 1020202
14 апреля, ср
ср1400:00+8зюз3596100 5.0 1019302
03:00+7юз2391100 5.2 1018162
06:00+8зсз239497 0.4 1018146
09:00+10зсз3579100 0.4 1018657
12:00+12сз237064 0.2 1017913
15:00+13сз3460100 0.2 10161364
18:00+11сз3677100 0.1 1017376
21:00+9юз2384100 0.1 1018150
15 апреля, чт
чт1500:00+8зюз118664 0.0 101711
03:00+7ю118737 0.0 101710
06:00+7ююз11830 0.0 101811
09:00+13з01587 0.0 1017497
12:00+17ссз11449 0.0 10151160
15:00+19ссз32345 0.0 10141628
18:00+16ссв345067 0.0 101569
21:00+12в2254100 0.0 101718
16 апреля, пт
пт1600:00+11ююв0158100 0.0 101611
03:00+9ююв116610 0.0 101710
06:00+9юв11695 0.0 101710
09:00+16всв23465 0.0 1017733
12:00+19всв44370 0.0 10161635
15:00+20всв54385 0.0 10141896
18:00+17всв48515 0.0 1015196
21:00+12в366594 0.0 1016109